1489654800.81,32441,9.5,73212.8,-5.45,-16.41,-12.57,0,*57
1489654802.07,32442,9.5,73210.8,-5.45,-17.07,-13.23,0,*55
1489654803.31,32443,9.5,73214.8,-5.51,-15.75,-11.73,0,*51
1489654804.54,32444,9.5,73196.0,-5.51,-13.87,-9.97,0,*6E
1489654805.83,32445,9.5,73204.3,-5.49,-14.55,-10.63,0,*5D
1489654807.07,32446,9.5,73208.5,-5.49,-14.33,-10.49,0,*56
1489654808.29,32447,9.5,73222.8,-5.49,-13.11,-9.23,0,*64
1489654809.59,32448,9.5,73222.3,-5.45,-14.55,-10.63,0,*5C
1489654810.84,32449,9.5,73240.5,-5.49,-14.97,-11.01,0,*5A
1489654812.11,32450,9.5,73226.0,-5.49,-13.97,-10.19,0,*5D
1489654813.38,32451,9.5,73230.5,-5.45,-14.83,-11.01,0,*5A
1489654814.64,32452,9.5,73214.5,-5.49,-16.03,-11.97,0,*50
1489654815.9,32453,9.5,73222.8,-5.53,-14.89,-10.79,0,*5B
1489654817.16,32454,9.5,73226.3,-5.51,-13.29,-9.41,0,*60
1489654818.41,32455,9.5,73246.8,-5.51,-13.29,-9.41,0,*61
1489654819.69,32456,9.5,73260.3,-5.45,-13.33,-9.37,0,*6D
1489654820.92,32457,9.5,73262.5,-5.45,-13.93,-9.89,0,*63
1489654822.18,32458,9.5,73256.3,-5.45,-13.65,-9.61,0,*63
1489654823.41,32459,9.5,73260.8,-5.45,-13.55,-9.71,0,*60
1489654824.68,32460,9.5,73270.3,-5.45,-14.83,-10.89,0,*59
1489654825.92,32461,9.5,73252.0,-5.45,-15.15,-11.11,0,*56
1489654827.19,32462,9.5,73270.8,-5.45,-14.51,-10.19,0,*5D
1489654828.44,32463,9.5,73284.8,-5.45,-12.83,-8.75,0,*66
1489654829.69,32464,9.5,73266.5,-5.45,-14.19,-10.27,0,*5A
1489654830.96,32465,9.5,73248.0,-5.45,-14.55,-10.57,0,*54
1489654832.25,32466,9.5,73258.0,-5.45,-16.09,-11.97,0,*51
1489654833.53,32467,9.5,73254.0,-5.49,-15.85,-11.55,0,*55
1489654834.79,32468,9.5,73266.5,-5.49,-16.79,-13.01,0,*59
1489654836.05,32469,9.5,73222.5,-5.51,-16.51,-12.57,0,*59
1489654837.3,32470,9.5,73236.0,-5.53,-14.79,-10.85,0,*56
1489654838.51,32471,9.5,73240.8,-5.55,-13.73,-9.79,0,*67
1489654839.7,32472,9.5,73234.0,-5.55,-12.47,-8.59,0,*61
1489654840.94,32473,9.5,73222.5,-5.51,-12.75,-8.85,0,*64
1489654842.19,32474,9.5,73238.3,-5.51,-11.77,-8.03,0,*6C
1489654843.47,32475,9.5,73252.0,-5.45,-11.73,-7.99,0,*60
1489654844.72,32476,9.5,73260.0,-5.45,-12.97,-9.49,0,*69
1489654845.96,32477,9.5,73232.0,-5.45,-14.65,-11.11,0,*57
1489654847.23,32478,9.5,73218.5,-5.49,-14.23,-10.67,0,*56
1489654848.51,32479,9.5,73226.5,-5.45,-11.73,-8.11,0,*63
1489654849.78,32480,9.5,73206.8,-5.45,-11.51,-7.95,0,*66
1489654851.05,32481,9.5,73188.5,-5.45,-14.19,-10.63,0,*51
1489654852.29,32482,9.5,73200.8,-5.45,-13.23,-9.75,0,*63
1489654853.55,32483,9.5,73200.3,-5.45,-13.37,-9.93,0,*6F
1489654854.78,32484,9.5,73198.3,-5.45,-13.07,-9.71,0,*67
1489654856.02,32485,9.5,73202.3,-5.45,-13.11,-9.75,0,*65
1489654857.25,32486,9.5,73212.3,-5.45,-12.21,-8.93,0,*6D
1489654858.52,32487,9.5,73204.8,-5.45,-11.67,-8.37,0,*63
1489654859.74,32488,9.5,73212.0,-5.43,-10.71,-7.53,0,*61
1489654860.97,32489,9.5,73214.8,-5.39,-10.45,-7.35,0,*6A
1489654862.17,32490,9.5,73210.0,-5.39,-10.89,-7.87,0,*6B
1489654863.38,32491,9.5,73238.5,-5.35,-10.19,-7.23,0,*61
1489654864.66,32492,9.5,73230.5,-5.33,-10.71,-7.73,0,*6F
1489654865.91,32493,9.5,73234.0,-5.33,-12.57,-9.67,0,*63
1489654867.18,32494,9.5,73222.8,-5.33,-11.73,-9.11,0,*60
1489654868.41,32495,9.5,73230.3,-5.33,-12.29,-9.75,0,*6F
1489654869.67,32496,9.5,73206.5,-5.33,-12.83,-10.27,0,*53
1489654870.88,32497,9.5,73210.8,-5.35,-12.93,-10.49,0,*5D
1489654872.11,32498,9.5,73204.3,-5.39,-12.83,-10.45,0,*53
1489654873.39,32499,9.5,73206.8,-5.41,-11.81,-9.41,0,*60
1489654874.63,32500,9.5,73210.3,-5.41,-9.97,-7.69,0,*5B
1489654875.85,32501,9.5,73224.0,-5.39,-10.05,-7.77,0,*69
1489654877.08,32502,9.5,73210.8,-5.39,-10.63,-8.41,0,*60
1489654878.3,32503,9.5,73214.0,-5.35,-11.97,-9.89,0,*62
1489654879.5,32504,9.5,73212.0,-5.35,-11.45,-9.31,0,*69
1489654880.73,32505,9.5,73220.5,-5.35,-10.75,-8.41,0,*6C
1489654881.95,32506,9.5,73208.3,-5.35,-11.29,-9.31,0,*61
1489654883.15,32507,9.5,73216.5,-5.35,-11.15,-8.97,0,*62
1489654884.4,32508,9.5,73216.5,-5.35,-11.55,-9.57,0,*64
1489654885.63,32509,9.5,73212.0,-5.35,-11.45,-9.45,0,*67
1489654886.86,32510,9.5,73220.0,-5.41,-10.49,-8.33,0,*61
1489654888.08,32511,9.5,73220.0,-5.39,-10.05,-7.77,0,*68
1489654889.3,32512,9.5,73234.5,-5.39,-9.79,-7.65,0,*5B
1489654890.54,32513,9.5,73242.0,-5.33,-9.89,-7.73,0,*58
1489654891.8,32514,9.5,73246.5,-5.33,-9.57,-7.43,0,*5F
1489654893.07,32515,9.5,73254.8,-5.33,-9.49,-7.31,0,*54
1489654894.32,32516,9.5,73266.8,-5.31,-9.27,-7.01,0,*5E
1489654895.54,32517,9.5,73270.0,-5.29,-10.15,-8.21,0,*62
1489654896.75,32518,9.5,73274.0,-5.29,-11.23,-9.27,0,*6E
1489654898.04,32519,9.5,73280.8,-5.31,-11.63,-9.53,0,*61
1489654899.29,32520,9.5,73270.5,-5.31,-11.07,-9.19,0,*67
1489654900.55,32521,9.5,73260.5,-5.31,-11.07,-9.05,0,*6B
1489654901.78,32522,9.5,73246.3,-5.33,-10.31,-8.41,0,*6F
1489654903.02,32523,9.5,73266.8,-5.33,-9.67,-7.73,0,*5B
1489654904.28,32524,9.5,73260.5,-5.29,-9.45,-7.65,0,*50
1489654905.51,32525,9.5,73272.3,-5.31,-10.09,-8.37,0,*60
1489654906.74,32526,9.5,73264.3,-5.31,-10.85,-9.19,0,*6A
1489654908.02,32527,9.5,73242.5,-5.31,-11.37,-9.83,0,*60
1489654909.25,32528,9.5,73244.0,-5.31,-10.57,-8.89,0,*63
1489654910.53,32529,9.5,73236.8,-5.31,-9.41,-7.77,0,*53
1489654911.79,32530,9.5,73234.3,-5.31,-8.93,-7.27,0,*50
1489654913.02,32531,9.5,73254.3,-5.29,-8.75,-6.97,0,*5A
1489654914.27,32532,9.5,73254.8,-5.29,-8.81,-7.31,0,*5F
1489654915.52,32533,9.5,73256.5,-5.27,-8.67,-7.27,0,*5F
1489654916.76,32534,9.5,73262.8,-5.25,-8.89,-7.39,0,*55
1489654917.99,32535,9.5,73270.5,-5.25,-9.01,-7.61,0,*58
1489654919.22,32536,9.5,73278.5,-5.21,-9.19,-7.69,0,*5E
1489654920.45,32537,9.5,73288.0,-5.21,-9.19,-7.69,0,*5F
1489654921.72,32538,9.5,73280.3,-5.19,-9.37,-7.91,0,*50
1489654922.98,32539,9.5,73264.5,-5.19,-11.29,-9.93,0,*6B
1489654924.24,32540,9.5,73264.5,-5.19,-10.97,-9.53,0,*6D
1489654925.46,32541,9.5,73274.3,-5.19,-9.67,-8.17,0,*5A
1489654926.67,32542,9.5,73272.0,-5.21,-11.15,-9.79,0,*67
1489654927.91,32543,9.5,73268.5,-5.21,-11.29,-9.89,0,*66
1489654929.11,32544,9.5,73274.5,-5.25,-11.15,-9.71,0,*6D
1489654930.34,32545,9.5,73278.5,-5.25,-11.37,-9.97,0,*64
1489654931.6,32546,9.5,73264.5,-5.27,-11.59,-10.05,0,*5E
1489654932.82,32547,9.5,73230.3,-5.29,-13.73,-12.25,0,*5B
1489654934.05,32548,9.5,73188.5,-5.31,-14.61,-13.15,0,*5B
1489654935.26,32549,9.5,73200.3,-5.39,-15.15,-13.43,0,*53
1489654936.51,32550,9.5,73206.5,-5.45,-14.65,-12.83,0,*5B
1489654937.77,32551,9.5,73204.3,-5.45,-14.69,-12.83,0,*56
1489654939.07,32552,9.5,73222.5,-5.49,-14.47,-12.71,0,*58
1489654940.31,32553,9.5,73216.8,-5.53,-15.07,-13.19,0,*58
1489654941.59,32554,9.5,73206.3,-5.57,-13.79,-11.81,0,*57
1489654942.85,32555,9.5,73196.5,-5.63,-13.61,-11.67,0,*50
1489654944.08,32556,9.5,73198.3,-5.63,-11.89,-9.93,0,*65
1489654945.32,32557,9.5,73200.5,-5.63,-11.07,-8.93,0,*63
1489654946.54,32558,9.5,73194.3,-5.61,-10.09,-8.17,0,*6D
1489654947.77,32559,9.5,73186.0,-5.61,-10.19,-8.17,0,*6D
1489654948.99,32560,9.5,73192.8,-5.61,-10.09,-8.21,0,*63
1489654950.24,32561,9.5,73182.5,-5.57,-9.93,-8.07,0,*58
1489654951.49,32562,9.5,73194.8,-5.57,-9.37,-7.49,0,*50
1489654952.72,32563,9.5,73206.8,-5.55,-9.19,-7.39,0,*58
1489654953.97,32564,9.5,73212.3,-5.53,-9.31,-7.65,0,*5A
1489654955.2,32565,9.5,73214.5,-5.51,-9.01,-7.27,0,*5C
1489654956.41,32566,9.5,73208.0,-5.51,-8.67,-7.11,0,*5B
1489654957.67,32567,9.5,73210.0,-5.49,-9.61,-7.99,0,*54
1489654958.93,32568,9.5,73210.3,-5.45,-8.89,-7.31,0,*52
1489654960.21,32569,9.5,73214.0,-5.45,-8.81,-7.35,0,*5F
1489654961.46,32570,9.5,73230.3,-5.43,-8.51,-7.01,0,*5B
1489654962.71,32571,9.5,73246.0,-5.45,-8.63,-7.31,0,*5E
1489654963.95,32572,9.56,73258.8,-5.45,-9.57,-8.17,0,*50
1489654965.23,32573,9.56,73252.3,-5.41,-9.41,-8.11,0,*54
1489654966.48,32574,9.5,73252.5,-5.41,-9.27,-7.95,0,*50
1489654967.74,32575,9.5,73248.5,-5.41,-8.51,-7.15,0,*59
1489654968.96,32576,9.5,73238.3,-5.39,-9.41,-8.17,0,*58
1489654970.15,32577,9.5,73242.3,-5.39,-10.45,-9.23,0,*63
1489654971.38,32578,9.56,73236.5,-5.41,-10.27,-9.05,0,*63
1489654972.61,32579,9.56,73214.5,-5.41,-10.85,-9.75,0,*6D
1489654973.88,32580,9.5,73210.0,-5.41,-11.51,-10.35,0,*5F
1489654975.08,32581,9.56,73226.5,-5.43,-9.79,-8.41,0,*55
1489654976.33,32582,9.5,73210.5,-5.45,-9.57,-8.37,0,*5D
1489654977.55,32583,9.5,73218.3,-5.43,-9.45,-8.21,0,*5E
1489654978.8,32584,9.56,73236.0,-5.45,-9.23,-7.99,0,*53
1489654980.04,32585,9.56,73234.0,-5.43,-9.01,-7.77,0,*54
1489654981.26,32586,9.5,73248.0,-5.43,-9.45,-8.21,0,*5B
1489654982.45,32587,9.5,73236.3,-5.43,-10.09,-8.75,0,*6B
1489654983.64,32588,9.56,73244.3,-5.43,-9.79,-8.63,0,*5C
1489654984.88,32589,9.5,73208.8,-5.45,-10.19,-9.05,0,*64
1489654986.13,32590,9.5,73208.3,-5.45,-9.19,-7.99,0,*5F
1489654987.38,32591,9.5,73206.5,-5.45,-8.75,-7.57,0,*57
1489654988.59,32592,9.56,73212.0,-5.43,-8.25,-7.11,0,*55
1489654989.82,32593,9.5,73228.8,-5.43,-8.63,-7.43,0,*51
1489654991.05,32594,9.5,73234.3,-5.43,-9.49,-8.37,0,*53
1489654992.27,32595,9.56,73248.3,-5.43,-9.67,-8.51,0,*5E
1489654993.49,32596,9.56,73240.8,-5.43,-9.27,-7.99,0,*52
1489654994.72,32597,9.56,73240.8,-5.43,-8.75,-7.57,0,*57
1489654995.92,32598,9.56,73250.3,-5.43,-8.37,-7.19,0,*54
1489654997.15,32599,9.56,73266.5,-5.43,-8.51,-7.19,0,*55
1489654998.41,32600,9.5,73256.8,-5.41,-8.71,-7.57,0,*5C
1489654999.65,32601,9.56,73236.3,-5.41,-9.53,-8.33,0,*51
1489655000.87,32602,9.5,73240.0,-5.41,-8.33,-7.11,0,*5A
1489655002.06,32603,9.5,73246.5,-5.39,-7.87,-6.69,0,*5A
1489655003.28,32604,9.56,73254.5,-5.39,-7.95,-6.73,0,*55
1489655004.53,32605,9.56,73248.3,-5.33,-8.41,-7.31,0,*5F
1489655005.75,32606,9.5,73250.3,-5.33,-7.87,-6.81,0,*53
1489655007.03,32607,9.5,73266.5,-5.33,-7.61,-6.63,0,*56
1489655008.26,32608,9.5,73228.0,-5.31,-9.27,-8.21,0,*5F
1489655009.46,32609,9.56,73254.3,-5.29,-8.59,-7.53,0,*55
1489655010.68,32610,9.56,73252.0,-5.29,-8.33,-7.01,0,*56
1489655011.91,32611,9.56,73238.3,-5.31,-7.87,-6.85,0,*53
1489655013.16,32612,9.56,73232.8,-5.29,-7.99,-7.01,0,*5B
1489655014.36,32613,9.56,73238.8,-5.29,-8.25,-7.15,0,*57
1489655015.56,32614,9.56,73232.0,-5.29,-8.59,-7.53,0,*59
1489655016.81,32615,9.56,73240.5,-5.27,-8.41,-7.35,0,*5F
1489655018.07,32616,9.56,73244.5,-5.27,-8.41,-7.35,0,*5C
1489655019.29,32617,9.56,73214.5,-5.25,-8.75,-7.77,0,*5E
1489655020.54,32618,9.56,73192.5,-5.27,-9.37,-8.17,0,*5D
1489655021.8,32619,9.56,73242.8,-5.27,-8.71,-7.65,0,*55
1489655023.02,32620,9.56,73242.8,-5.27,-9.97,-8.97,0,*54
1489655024.26,32621,9.56,73248.3,-5.27,-9.27,-8.03,0,*53
1489655025.51,32622,9.56,73256.5,-5.27,-8.21,-7.01,0,*5A
1489655026.71,32623,9.56,73256.8,-5.25,-7.83,-6.73,0,*5A
1489655027.93,32624,9.5,73228.0,-5.25,-8.03,-6.85,0,*53
1489655029.17,32625,9.5,73230.8,-5.21,-8.93,-7.73,0,*57
1489655030.39,32626,9.56,73258.5,-5.21,-8.17,-6.97,0,*53
1489655031.65,32627,9.56,73250.8,-5.21,-8.51,-7.31,0,*5D
1489655032.9,32628,9.56,73248.5,-5.19,-8.55,-7.43,0,*58
1489655034.17,32629,9.56,73238.5,-5.19,-7.99,-6.93,0,*5A
1489655035.4,32630,9.5,73248.0,-5.19,-8.25,-7.11,0,*51
1489655036.66,32631,9.5,73254.0,-5.21,-8.51,-7.35,0,*5E
1489655037.91,32632,9.56,73236.5,-5.19,-10.31,-9.37,0,*65
1489655039.12,32633,9.5,73224.8,-5.21,-9.67,-8.37,0,*55
1489655040.32,32634,9.56,73228.0,-5.21,-8.37,-7.19,0,*55
1489655041.55,32635,9.5,73226.3,-5.21,-8.71,-7.57,0,*5C
1489655042.8,32636,9.56,73226.8,-5.19,-7.91,-6.77,0,*56
1489655044.02,32637,9.56,73222.5,-5.19,-8.17,-6.89,0,*57
1489655045.28,32638,9.5,73228.5,-5.17,-8.51,-7.31,0,*56
1489655046.48,32639,9.5,73228.3,-5.17,-8.37,-7.19,0,*5D
1489655047.7,32640,9.5,73224.3,-5.17,-8.25,-7.01,0,*59
1489655048.92,32641,9.56,73220.0,-5.17,-10.23,-9.15,0,*6C
1489655050.17,32642,9.56,73212.8,-5.19,-11.23,-10.27,0,*59
1489655051.38,32643,9.56,73210.0,-5.21,-11.15,-10.19,0,*5B
1489655052.64,32644,9.56,73214.5,-5.27,-10.49,-9.37,0,*66
1489655053.88,32645,9.5,73200.8,-5.29,-10.71,-9.75,0,*64
1489655055.15,32646,9.5,73194.8,-5.31,-11.93,-10.93,0,*53
1489655056.35,32647,9.5,73212.3,-5.35,-10.85,-9.67,0,*63
1489655057.58,32648,9.5,73202.3,-5.39,-10.63,-9.67,0,*68
1489655058.86,32649,9.56,73190.3,-5.41,-10.79,-9.83,0,*67
1489655060.1,32650,9.56,73212.8,-5.41,-8.89,-7.83,0,*57
1489655061.35,32651,9.5,73224.8,-5.41,-7.83,-6.97,0,*57
1489655062.6,32652,9.56,73234.0,-5.41,-8.75,-7.99,0,*5D
1489655063.85,32653,9.56,73218.8,-5.41,-10.01,-9.45,0,*69
1489655065.09,32654,9.56,73212.3,-5.41,-10.85,-10.15,0,*5F
1489655066.35,32655,9.5,73230.5,-5.43,-11.37,-10.79,0,*5E
1489655067.59,32656,9.56,73220.8,-5.49,-10.57,-10.19,0,*56
1489655068.81,32657,9.56,73162.5,-5.49,-9.79,-9.23,0,*52
1489655070.01,32658,9.56,73156.0,-5.51,-8.93,-8.33,0,*51
1489655071.26,32659,9.56,73166.0,-5.51,-9.61,-9.11,0,*5D
1489655072.45,32660,9.56,73172.3,-5.51,-8.67,-8.29,0,*5A
1489655073.66,32661,9.5,73182.3,-5.51,-8.85,-8.41,0,*59
1489655074.88,32662,9.56,73196.8,-5.51,-8.21,-7.77,0,*5E
1489655076.13,32663,9.56,73226.5,-5.53,-7.83,-7.31,0,*58
1489655077.35,32664,9.56,73222.3,-5.51,-7.49,-6.97,0,*56
1489655078.6,32665,9.56,73238.5,-5.49,-7.87,-7.27,0,*56
1489655079.83,32666,9.56,73230.8,-5.45,-8.55,-8.25,0,*54
1489655081.06,32667,9.56,73210.0,-5.49,-9.01,-8.45,0,*5F
1489655082.31,32668,9.56,73230.5,-5.45,-8.17,-7.73,0,*50
1489655083.59,32669,9.56,73240.0,-5.49,-7.99,-7.61,0,*57
1489655084.86,32670,9.56,73246.3,-5.45,-8.03,-7.73,0,*5C
1489655086.1,32671,9.56,73226.5,-5.45,-7.19,-6.81,0,*55
1489655087.35,32672,9.56,73226.0,-5.43,-7.43,-7.01,0,*56
1489655088.57,32673,9.5,73226.3,-5.43,-7.01,-6.59,0,*5D
1489655089.82,32674,9.56,73232.8,-5.41,-7.01,-6.73,0,*50
1489655091.07,32675,9.56,73250.0,-5.41,-7.27,-6.77,0,*51
1489655092.32,32676,9.56,73244.8,-5.41,-9.67,-9.41,0,*52
1489655093.57,32677,9.56,73252.3,-5.41,-9.75,-9.53,0,*53
1489655094.79,32678,9.56,73234.8,-5.43,-9.89,-9.45,0,*5A
1489655096.07,32679,9.56,73236.0,-5.45,-8.51,-8.03,0,*5A
1489655097.31,32680,9.56,73230.8,-5.43,-7.91,-7.39,0,*5F
1489655098.54,32681,9.56,73212.3,-5.43,-7.57,-7.15,0,*5A
1489655099.76,32682,9.56,73204.5,-5.43,-7.69,-7.15,0,*54
1489655101.02,32683,9.56,73208.3,-5.41,-7.69,-7.15,0,*57
1489655102.23,32684,9.56,73202.0,-5.43,-7.39,-6.89,0,*53
1489655103.49,32685,9.56,73208.5,-5.41,-7.57,-7.11,0,*58
1489655104.72,32686,9.56,73222.3,-5.39,-7.65,-7.23,0,*54
1489655105.94,32687,9.56,73200.8,-5.39,-7.87,-7.35,0,*5E
1489655107.14,32688,9.56,73202.5,-5.39,-8.41,-7.87,0,*5D
1489655108.38,32689,9.56,73208.0,-5.39,-7.91,-7.39,0,*5B
1489655109.6,32690,9.56,73214.0,-5.39,-7.53,-6.97,0,*58
1489655110.83,32691,9.56,73238.0,-5.35,-7.35,-6.81,0,*52
1489655112.06,32692,9.56,73228.5,-5.33,-7.11,-6.51,0,*5C
1489655113.33,32693,9.56,73240.3,-5.33,-7.99,-7.35,0,*5E
1489655114.58,32694,9.56,73232.5,-5.31,-7.69,-7.15,0,*56
1489655115.83,32695,9.56,73248.8,-5.31,-7.83,-7.39,0,*5D
1489655117.06,32696,9.56,73236.3,-5.31,-8.71,-8.25,0,*5E
1489655118.34,32697,9.56,73260.0,-5.31,-8.07,-7.65,0,*55
1489655119.59,32698,9.56,73266.5,-5.31,-8.07,-7.53,0,*5F
1489655120.88,32699,9.56,73246.0,-5.31,-8.11,-7.57,0,*5D
1489655122.1,32700,9.56,73254.5,-5.29,-7.53,-6.97,0,*51
1489655123.34,32701,9.56,73264.0,-5.31,-8.93,-8.37,0,*5E
1489655124.61,32702,9.56,73278.5,-5.31,-9.83,-9.45,0,*59
1489655125.85,32703,9.56,73268.5,-5.33,-9.89,-9.45,0,*50
1489655127.05,32704,9.56,73240.3,-5.39,-10.09,-9.67,0,*6D
1489655128.27,32705,9.56,73234.5,-5.39,-9.15,-8.59,0,*55
1489655129.49,32706,9.56,73220.5,-5.39,-7.95,-7.53,0,*55
1489655130.76,32707,9.56,73236.3,-5.41,-7.91,-7.39,0,*53
1489655131.99,32708,9.56,73232.8,-5.39,-7.61,-7.11,0,*56
1489655133.21,32709,9.56,73228.8,-5.39,-7.53,-6.97,0,*59
1489655134.46,32710,9.56,73238.3,-5.39,-7.73,-7.35,0,*5A
1489655135.7,32711,9.56,73228.8,-5.35,-7.43,-6.93,0,*59
1489655136.93,32712,9.56,73234.0,-5.33,-6.77,-6.31,0,*52
1489655138.18,32713,9.56,73238.0,-5.33,-6.93,-6.43,0,*5C
1489655139.4,32714,9.56,73244.5,-5.33,-7.83,-7.23,0,*5C
1489655140.68,32715,9.56,73238.5,-5.31,-7.99,-7.69,0,*5A
1489655141.91,32716,9.56,73234.3,-5.29,-7.83,-7.31,0,*56
1489655143.16,32717,9.56,73234.0,-5.29,-8.07,-7.65,0,*55
1489655144.42,32718,9.56,73248.3,-5.31,-7.53,-6.97,0,*51
1489655145.69,32719,9.56,73252.5,-5.31,-7.65,-7.05,0,*5F
1489655146.94,32720,9.56,73252.5,-5.31,-8.81,-8.37,0,*5E
1489655148.2,32721,9.56,73248.3,-5.31,-10.01,-9.61,0,*6C
1489655149.44,32722,9.56,73242.0,-5.35,-9.61,-9.11,0,*52
1489655150.66,32723,9.56,73238.8,-5.35,-8.63,-8.11,0,*51
1489655151.88,32724,9.56,73232.5,-5.35,-7.31,-6.89,0,*51
1489655153.1,32725,9.56,73226.3,-5.35,-7.05,-6.55,0,*56
1489655154.34,32726,9.56,73248.8,-5.33,-7.31,-6.89,0,*55
1489655155.62,32727,9.56,73242.5,-5.31,-7.99,-7.57,0,*56
1489655156.87,32728,9.56,73254.5,-5.33,-7.61,-7.23,0,*5F
1489655158.09,32729,9.56,73262.0,-5.35,-7.87,-7.57,0,*53
1489655159.31,32730,9.56,73252.5,-5.35,-8.41,-8.11,0,*53
1489655160.56,32731,9.56,73250.5,-5.33,-8.11,-7.87,0,*51
1489655161.81,32732,9.56,73248.8,-5.33,-8.11,-7.83,0,*56
1489655163.03,32733,9.56,73250.8,-5.33,-7.87,-7.49,0,*51
1489655164.3,32734,9.56,73230.0,-5.33,-7.61,-7.31,0,*51
1489655165.57,32735,9.56,73216.3,-5.33,-7.43,-7.05,0,*57
1489655166.81,32736,9.56,73220.5,-5.31,-7.39,-7.15,0,*5A
1489655168.09,32737,9.56,73226.8,-5.31,-7.31,-6.97,0,*58
1489655169.32,32738,9.56,73230.8,-5.31,-7.19,-6.89,0,*52
1489655170.55,32739,9.56,73230.0,-5.31,-7.53,-7.15,0,*59
1489655171.78,32740,9.56,73240.0,-5.29,-7.57,-7.19,0,*56
1489655173.0,32741,9.56,73244.5,-5.29,-7.53,-7.05,0,*5E
1489655174.26,32742,9.56,73260.8,-5.29,-7.77,-7.39,0,*54
1489655175.51,32743,9.56,73260.0,-5.27,-6.97,-6.55,0,*5F
1489655176.74,32744,9.56,73248.5,-5.25,-7.01,-6.55,0,*54
1489655177.97,32745,9.56,73252.0,-5.21,-6.81,-6.19,0,*50
1489655179.17,32746,9.56,73250.5,-5.21,-6.77,-6.13,0,*50
1489655180.42,32747,9.56,73248.8,-5.19,-6.31,-5.77,0,*59
1489655181.66,32748,9.56,73258.5,-5.17,-6.23,-5.69,0,*54
1489655182.94,32749,9.56,73262.8,-5.11,-6.19,-5.65,0,*56
1489655184.14,32750,9.56,73254.3,-5.09,-6.89,-6.47,0,*5D
1489655185.36,32751,9.56,73252.0,-5.09,-7.31,-6.77,0,*5D
1489655186.6,32752,9.56,73248.0,-5.11,-8.03,-7.49,0,*55
1489655187.82,32753,9.56,73256.0,-5.09,-7.35,-6.77,0,*5B
1489655189.05,32754,9.56,73250.5,-5.09,-7.43,-6.81,0,*54
1489655190.28,32755,9.56,73250.3,-5.09,-7.11,-6.63,0,*5E
1489655191.5,32756,9.56,73250.8,-5.07,-6.89,-6.35,0,*50
1489655192.74,32757,9.56,73250.0,-5.07,-6.73,-6.27,0,*57
1489655193.94,32758,9.56,73248.8,-5.05,-6.59,-6.01,0,*56
1489655195.16,32759,9.56,73240.5,-5.05,-6.63,-6.13,0,*5D
1489655196.4,32760,9.56,73224.3,-5.05,-6.63,-6.23,0,*54
1489655197.61,32761,9.56,73222.0,-5.01,-6.69,-6.23,0,*5B
1489655198.81,32762,9.56,73222.8,-5.01,-6.77,-6.35,0,*50
1489655200.06,32763,9.56,73230.0,-4.97,-6.93,-6.43,0,*54
1489655201.26,32764,9.56,73242.8,-4.95,-6.55,-6.01,0,*5D
1489655202.45,32765,9.56,73252.5,-4.95,-6.73,-6.39,0,*53
1489655203.67,32766,9.56,73254.5,-4.93,-6.89,-6.47,0,*5A
1489655204.92,32767,9.56,73258.8,-4.93,-7.05,-6.47,0,*5E
1489655206.15,32768,9.56,73258.3,-4.91,-6.93,-6.47,0,*5D
1489655207.4,32769,9.56,73256.3,-4.91,-7.43,-7.01,0,*53
1489655208.62,32770,9.56,73266.0,-4.91,-8.51,-8.21,0,*5A
1489655209.85,32771,9.56,73258.3,-4.93,-8.25,-7.83,0,*5D
1489655211.13,32772,9.56,73256.0,-4.93,-8.11,-7.73,0,*56
1489655212.35,32773,9.56,73248.3,-4.95,-8.25,-7.99,0,*52
1489655213.6,32774,9.56,73252.3,-4.95,-8.11,-7.65,0,*51
1489655214.82,32775,9.56,73264.5,-4.97,-7.19,-6.69,0,*58
1489655216.05,32776,9.56,73276.0,-4.97,-6.73,-6.31,0,*5B
1489655217.27,32777,9.56,73278.0,-4.97,-6.73,-6.39,0,*52
1489655218.49,32778,9.56,73256.8,-4.95,-6.55,-6.19,0,*59
1489655219.76,32779,9.56,73258.0,-4.93,-7.31,-6.93,0,*5F
1489655220.98,32780,9.56,73268.0,-4.91,-6.69,-6.27,0,*58
1489655222.23,32781,9.56,73262.5,-4.91,-7.61,-7.27,0,*51
1489655223.48,32782,9.56,73272.8,-4.93,-9.19,-8.81,0,*52
1489655224.7,32783,9.56,73284.8,-4.95,-10.89,-10.71,0,*52
1489655225.93,32784,9.56,73284.0,-4.97,-9.93,-9.67,0,*5B
1489655227.18,32785,9.56,73272.5,-5.03,-9.15,-9.01,0,*58
1489655228.42,32786,9.56,73286.0,-5.05,-9.15,-9.01,0,*5D
1489655229.66,32787,9.56,73284.0,-5.07,-9.83,-9.71,0,*56
1489655230.88,32788,9.56,73280.8,-5.09,-9.93,-9.61,0,*57
1489655232.12,32789,9.56,73298.8,-5.11,-9.41,-9.23,0,*56
1489655233.38,32790,9.56,73296.5,-5.11,-9.15,-8.97,0,*51
1489655234.62,32791,9.56,73306.0,-5.17,-9.45,-9.61,0,*5B
1489655235.85,32792,9.56,73300.8,-5.19,-10.05,-9.79,0,*63
1489655237.1,32793,9.56,73292.8,-5.21,-9.49,-9.45,0,*56
1489655238.31,32794,9.56,73278.5,-5.21,-10.49,-10.31,0,*52
1489655239.54,32795,9.56,73256.3,-5.27,-11.19,-11.01,0,*53
1489655240.83,32796,9.56,73254.8,-5.31,-11.77,-11.63,0,*5B
1489655242.04,32797,9.56,73246.0,-5.35,-11.23,-11.01,0,*5B
1489655243.28,32798,9.56,73242.5,-5.41,-10.85,-10.57,0,*58
1489655244.52,32799,9.56,73220.3,-5.43,-10.79,-10.53,0,*5C
1489655245.75,32800,9.56,73216.8,-5.43,-10.41,-9.97,0,*68
1489655247.0,32801,9.56,73208.3,-5.45,-9.11,-8.63,0,*58
1489655248.23,32802,9.56,73204.8,-5.45,-9.31,-8.97,0,*52
1489655249.47,32803,9.56,73186.3,-5.45,-9.93,-9.49,0,*59
1489655250.71,32804,9.56,73196.3,-5.45,-9.89,-9.61,0,*5F
1489655251.96,32805,9.56,73204.8,-5.49,-9.15,-8.59,0,*5D
1489655253.18,32806,9.56,73210.5,-5.49,-8.67,-8.17,0,*50
1489655254.44,32807,9.56,73234.3,-5.45,-8.17,-7.73,0,*57
1489655255.66,32808,9.56,73236.5,-5.45,-9.05,-8.55,0,*51
1489655256.91,32809,9.56,73228.8,-5.45,-8.41,-7.95,0,*52
1489655258.16,32810,9.56,73214.3,-5.45,-8.29,-7.57,0,*5A
1489655259.41,32811,9.56,73204.8,-5.45,-7.95,-7.23,0,*50
1489655260.66,32812,9.56,73232.0,-5.43,-7.95,-7.39,0,*5E
1489655261.92,32813,9.56,73220.8,-5.41,-8.59,-8.07,0,*50
1489655263.21,32814,9.56,73206.5,-5.45,-11.85,-11.55,0,*55
1489655264.44,32815,9.56,73226.0,-5.45,-10.57,-10.05,0,*5E
1489655265.7,32816,9.56,73226.3,-5.49,-8.67,-8.07,0,*50
1489655266.95,32817,9.56,73218.8,-5.45,-8.75,-8.11,0,*59
1489655268.23,32818,9.56,73224.0,-5.45,-8.11,-7.57,0,*59
1489655269.47,32819,9.56,73230.8,-5.45,-7.83,-7.05,0,*5B
1489655270.73,32820,9.56,73238.0,-5.45,-7.83,-7.31,0,*56
1489655272.0,32821,9.56,73268.8,-5.45,-7.99,-7.43,0,*59
1489655273.25,32822,9.56,73276.3,-5.45,-7.95,-7.49,0,*5C
1489655274.45,32823,9.56,73248.0,-5.43,-9.05,-8.63,0,*5B
1489655275.7,32824,9.63,73244.5,-5.45,-10.01,-9.49,0,*6F
1489655276.94,32825,9.56,73270.8,-5.45,-10.15,-9.75,0,*64
1489655278.18,32826,9.56,73258.0,-5.49,-9.23,-8.81,0,*5C
1489655279.43,32827,9.56,73244.0,-5.49,-8.81,-8.45,0,*5C
1489655280.63,32828,9.56,73224.0,-5.51,-8.71,-8.41,0,*51
1489655281.85,32829,9.56,73202.5,-5.51,-8.33,-7.99,0,*5C
1489655283.07,32830,9.56,73188.5,-5.51,-8.81,-8.41,0,*57
1489655284.29,32831,9.56,73202.8,-5.51,-9.37,-8.97,0,*51
1489655285.54,32832,9.56,73202.3,-5.51,-9.61,-9.37,0,*5A
1489655286.74,32833,9.56,73204.5,-5.51,-9.23,-8.85,0,*55
1489655287.96,32834,9.56,73198.8,-5.51,-9.53,-9.27,0,*5C
1489655289.16,32835,9.56,73214.8,-5.51,-8.67,-8.21,0,*5C
1489655290.41,32836,9.56,73228.3,-5.51,-7.27,-6.93,0,*53
1489655291.66,32837,9.56,73228.5,-5.51,-8.03,-7.61,0,*57
1489655292.88,32838,9.56,73224.8,-5.51,-8.17,-7.65,0,*59
1489655294.13,32839,9.56,73228.5,-5.49,-7.91,-7.49,0,*5E
1489655295.4,32840,9.56,73242.8,-5.45,-7.99,-7.57,0,*5B
1489655296.65,32841,9.63,73242.3,-5.45,-9.11,-8.75,0,*5B
1489655297.9,32842,9.63,73236.0,-5.49,-9.67,-9.15,0,*52
1489655299.14,32843,9.56,73228.8,-5.49,-8.81,-8.29,0,*54
1489655300.39,32844,9.63,73232.0,-5.49,-8.07,-7.53,0,*5F
1489655301.66,32845,9.63,73240.8,-5.45,-7.95,-7.31,0,*52
1489655302.91,32846,9.56,73242.8,-5.45,-9.45,-9.05,0,*5B
1489655304.15,32847,9.56,73236.0,-5.49,-10.49,-10.09,0,*56
1489655305.38,32848,9.56,73236.5,-5.49,-10.19,-9.75,0,*6F
1489655306.63,32849,9.56,73234.3,-5.49,-9.67,-9.11,0,*5D
1489655307.85,32850,9.63,73236.5,-5.51,-8.21,-7.65,0,*52
1489655309.08,32851,9.56,73242.5,-5.51,-7.73,-7.11,0,*58
1489655310.3,32852,9.63,73248.5,-5.51,-7.35,-6.73,0,*5C
1489655311.55,32853,9.63,73246.3,-5.45,-7.49,-6.93,0,*5D
1489655312.77,32854,9.56,73244.3,-5.43,-7.39,-6.73,0,*55
1489655314.02,32855,9.56,73256.0,-5.43,-7.57,-7.01,0,*58
1489655315.27,32856,9.63,73260.0,-5.41,-7.43,-6.89,0,*5D
1489655316.53,32857,9.56,73252.5,-5.41,-7.69,-7.11,0,*54
1489655317.73,32858,9.56,73254.3,-5.39,-7.23,-6.59,0,*57
1489655318.95,32859,9.63,73252.0,-5.35,-7.05,-6.51,0,*56
1489655320.2,32860,9.63,73244.8,-5.33,-6.93,-6.31,0,*52
1489655321.45,32861,9.63,73246.5,-5.33,-6.89,-6.19,0,*52